User: anonymous   Login
Location: Ab? ar R?sh Ba?r?
(24.1861°N, 32.8847°E)
Time: 06:13:44
(UTC+00:00)
Language:

Cosmos 614 Rocket - Orbit

View from above orbital plane
View from above orbital plane
View from above satellite
View from above satellite

Ground track
Ground track

The orbit data is extracted from the following two-line orbital elements,

1 06966U 73098B   22021.35128057  .00000145  00000-0  51014-4 0  9997
2 06966  74.0573 347.4953 0022779 260.2340  99.6244 14.43124363527395
Epoch (UTC): 21 January 2022 08:25:50
Eccentricity: 0.0022779
inclination: 74.0573°
perigee height: 732 km
apogee height: 764 km
right ascension of ascending node: 347.4953°
argument of perigee: 260.2340°
revolutions per day: 14.43124363
mean anomaly at epoch: 99.6244°
orbit number at epoch: 52739

The dashed part of the orbit path shows where the satellite is in the earth's shadow,  

DLR